Location: Spring Creek
(38.2870°N, 100.2160°W)
Time: 16:31:16
(UTC+00:00)

DELTA 2 R/B (1) - Pass Details

Date: 02 October 2021
Orbit: 790 x 802 km, 39.6° (Epoch: 16 October)

Event Time Altitude Azimuth Distance (km) Brightness Sun altitude
Exits shadow 10:51:58 12° 189° (S) 2,235 5.7 -21.5°
Maximum altitude 10:55:41 22° 144° (SE) 1,684 5.5 -20.8°
Drops below altitude 10° 10:59:48 10° 96° (E) 2,349 7.1 -20.0°
Sets 11:02:48 0° 81° (E) 3,283 8.4 -19.4°
